Location: Columbia, SC
(34.0000°N, 81.0300°W)
Time: 23:57:14
(UTC-04:00)

Tiangong 1 - Visible Passes

Search period start: 24 April 2014 00:00
Search period end: 04 May 2014 00:00
Orbit: 353 x 370 km, 42.8° (Epoch: 24 April)

Date Brightness Start Highest point End Pass type
(mag) Time Alt. Az. Time Alt. Az. Time Alt. Az.
28 Apr 3.1 05:49:59 10° S 05:52:10 19° SE 05:54:21 10° E visible
30 Apr 2.4 05:12:50 24° S 05:13:31 27° SE 05:16:05 10° E visible
01 May 0.9 05:40:07 20° WSW 05:42:01 78° NNW 05:44:59 10° ENE visible
02 May 2.8 04:35:32 27° E 04:35:32 27° E 04:37:14 10° ENE visible
03 May 1.2 05:02:29 51° NW 05:02:47 55° NNW 05:05:42 10° NE visible
